TimeEDT,TemperatureF,Dew PointF,Humidity,Sea Level PressureIn,VisibilityMPH,Wind Direction,Wind SpeedMPH,Gust SpeedMPH,PrecipitationIn,Events,Conditions,WindDirDegrees,DateUTC
12:53 AM,72.0,61.0,68,30.11,10.0,SSE,6.9,-,N/A,,Scattered Clouds,160,2013-06-22 04:53:00
1:53 AM,71.1,61.0,70,30.09,10.0,SSE,5.8,-,N/A,,Scattered Clouds,160,2013-06-22 05:53:00
2:53 AM,72.0,60.1,66,30.08,10.0,South,6.9,-,N/A,,Scattered Clouds,180,2013-06-22 06:53:00
3:53 AM,72.0,60.1,66,30.05,10.0,South,5.8,-,N/A,,Mostly Cloudy,190,2013-06-22 07:53:00
4:53 AM,72.0,61.0,68,30.05,10.0,South,6.9,-,N/A,,Mostly Cloudy,180,2013-06-22 08:53:00
5:53 AM,70.0,61.0,73,30.05,10.0,South,3.5,-,N/A,,Mostly Cloudy,190,2013-06-22 09:53:00
6:53 AM,71.1,62.1,73,30.06,10.0,SSW,6.9,-,N/A,,Mostly Cloudy,200,2013-06-22 10:53:00
7:53 AM,73.0,63.0,71,30.07,10.0,South,6.9,-,N/A,,Mostly Cloudy,190,2013-06-22 11:53:00
8:53 AM,77.0,64.9,66,30.08,10.0,South,12.7,-,N/A,,Overcast,180,2013-06-22 12:53:00
9:53 AM,79.0,66.0,64,30.09,10.0,SSW,8.1,-,N/A,,Overcast,210,2013-06-22 13:53:00
10:53 AM,81.0,68.0,65,30.08,10.0,SSW,11.5,-,N/A,,Overcast,210,2013-06-22 14:53:00
11:53 AM,84.9,69.1,59,30.08,10.0,WSW,10.4,-,N/A,,Overcast,250,2013-06-22 15:53:00
12:53 PM,84.9,70.0,61,30.08,10.0,West,8.1,-,N/A,,Mostly Cloudy,260,2013-06-22 16:53:00
1:53 PM,84.9,70.0,61,30.07,8.0,Calm,Calm,-,N/A,,Overcast,0,2013-06-22 17:53:00
2:53 PM,88.0,72.0,59,30.05,10.0,South,15.0,-,N/A,,Overcast,190,2013-06-22 18:53:00
3:34 PM,86.0,71.6,62,30.05,10.0,SW,8.1,-,N/A,Thunderstorm,Thunderstorm,220,2013-06-22 19:34:00
3:43 PM,80.6,69.8,70,30.06,2.5,NW,29.9,47.2,0.00,Rain-Thunderstorm,Heavy Thunderstorms and Rain,320,2013-06-22 19:43:00
3:44 PM,78.8,69.8,74,30.05,2.5,NNW,28.8,47.2,0.00,Rain-Thunderstorm,Heavy Thunderstorms and Rain,330,2013-06-22 19:44:00
3:53 PM,75.9,70.0,82,30.03,2.0,NNE,10.4,34.5,0.06,Rain-Thunderstorm,Heavy Thunderstorms and Rain,20,2013-06-22 19:53:00
3:55 PM,75.2,69.8,83,30.03,3.0,North,12.7,-,0.01,Rain-Thunderstorm,Light Thunderstorms and Rain,10,2013-06-22 19:55:00
4:14 PM,75.2,69.8,83,30.02,2.0,West,18.4,-,0.13,Rain-Thunderstorm,Heavy Thunderstorms and Rain,260,2013-06-22 20:14:00
4:16 PM,75.2,69.8,83,30.07,0.2,WSW,15.0,-,0.15,Rain-Thunderstorm,Heavy Thunderstorms and Rain,250,2013-06-22 20:16:00
4:28 PM,75.2,68.0,78,30.04,0.2,SSW,13.8,42.6,0.34,Rain-Thunderstorm,Heavy Thunderstorms and Rain,200,2013-06-22 20:28:00
4:30 PM,75.2,66.2,73,30.04,0.5,South,16.1,42.6,0.36,Rain-Thunderstorm,Heavy Thunderstorms and Rain,180,2013-06-22 20:30:00
4:32 PM,73.4,68.0,83,30.04,1.5,SSE,13.8,33.4,0.39,Rain-Thunderstorm,Heavy Thunderstorms and Rain,160,2013-06-22 20:32:00
4:38 PM,73.4,69.8,88,30.06,3.0,SE,11.5,-,0.49,Rain-Thunderstorm,Heavy Thunderstorms and Rain,140,2013-06-22 20:38:00
4:53 PM,73.0,71.1,93,30.05,2.0,SE,12.7,20.7,0.64,Rain-Thunderstorm,Heavy Thunderstorms and Rain,130,2013-06-22 20:53:00
5:04 PM,73.4,69.8,88,30.06,7.0,SSE,12.7,23.0,0.10,Thunderstorm,Thunderstorm,150,2013-06-22 21:04:00
5:36 PM,73.4,71.6,94,30.05,9.0,SE,9.2,-,0.10,,Overcast,130,2013-06-22 21:36:00
5:53 PM,72.0,69.1,91,30.05,10.0,South,12.7,-,0.10,,Mostly Cloudy,190,2013-06-22 21:53:00
6:53 PM,73.0,66.9,81,30.01,10.0,SSW,6.9,-,N/A,,Mostly Cloudy,200,2013-06-22 22:53:00
7:53 PM,73.9,66.9,79,30.01,10.0,SSW,12.7,-,0.00,Rain,Light Rain,210,2013-06-22 23:53:00
8:53 PM,73.9,66.9,79,30.02,10.0,South,6.9,-,0.00,,Mostly Cloudy,190,2013-06-23 00:53:00
9:53 PM,73.9,68.0,82,30.04,10.0,South,6.9,-,N/A,,Mostly Cloudy,180,2013-06-23 01:53:00
10:53 PM,73.9,68.0,82,30.06,10.0,South,10.4,-,N/A,,Mostly Cloudy,190,2013-06-23 02:53:00
11:53 PM,73.0,68.0,84,30.04,10.0,SW,6.9,-,N/A,,Scattered Clouds,220,2013-06-23 03:53:00